Glasgow, United Kingdom

9:35 PM GMT on January 21, 2018 (GMT +0000)
Glasgow

Weather History for EGPF - October, 2012

Change the Weather History Date:

Thursday, October 18, 2012

  Actual Average Record
Temperature  
Mean Temperature 46 °F -  
Max Temperature 51 °F 49 °F 64 °F (2014)
Min Temperature 42 °F 39 °F 28 °F (1998)
Degree Days  
Heating Degree Days 18    
Moisture  
Dew Point 46 °F    
Average Humidity 94    
Maximum Humidity 100    
Minimum Humidity 87    
Precipitation  
Precipitation 0.00 in - - ()
Sea Level Pressure  
Sea Level Pressure 29.47 in    
Wind  
Wind Speed 7 mph ()    
Max Wind Speed 15 mph    
Max Gust Speed -    
Visibility 5.4 miles    
Events Fog , Rain    
Averages and records for this station are not official NWS values.
T = Trace of Precipitation, MM = Missing Value Source: Averaged Metar Reports

Daily Weather History Graph

Daily Weather History Graph

Search for Another Location

Airport or City:

Trip Planner

Search our weather history database for the weather conditions in past years. The results will help you decide how hot, cold, wet, or windy it might be!

Date:

Astronomy

Oct. 18, 2012 Rise Set
Actual Time 7:55 AM BST 6:09 PM BST
Civil Twilight 7:17 AM BST 6:46 PM BST
Nautical Twilight 6:34 AM BST 7:29 PM BST
Astronomical Twilight 5:51 AM BST 8:12 PM BST
Moon 12:01 PM BST (10/18) 7:48 PM BST (10/18)
Length of Visible Light 11h 28m
Length of Day
10h 13m
Waxing Crescent, 12% of the Moon is Illuminated
Oct 18
Waxing Crescent
Oct 22
First Quarter
Oct 29
Full
Nov 7
Last Quarter
Nov 13
New

Hourly Weather History & Observations

Time (BST) Temp. Windchill Dew Point Humidity Pressure Visibility Wind Dir Wind Speed Gust Speed Precip Events Conditions
12:20 AM 46.4 °F 41.9 °F 44.6 °F 93% 29.36 in 6.2 mi ENE 9.2 mph - N/A   Scattered Clouds
12:50 AM 46.4 °F 41.5 °F 44.6 °F 93% 29.36 in 6.2 mi ENE 10.4 mph - N/A   Partly Cloudy
1:20 AM 46.4 °F 41.5 °F 44.6 °F 93% 29.36 in 5.0 mi ENE 10.4 mph - N/A   Mostly Cloudy
1:50 AM 44.6 °F 39.7 °F 44.6 °F 100% 29.39 in 6.2 mi East 9.2 mph - N/A   Partly Cloudy
2:20 AM 44.6 °F 39.2 °F 42.8 °F 93% 29.39 in - East 10.4 mph - N/A   Clear
2:50 AM 44.6 °F 40.2 °F 42.8 °F 93% 29.36 in 6.2 mi East 8.1 mph - N/A   Scattered Clouds
3:20 AM 42.8 °F 39.3 °F 42.8 °F 100% 29.36 in 6.2 mi East 5.8 mph - N/A   Unknown
3:50 AM 42.8 °F 39.3 °F 42.8 °F 100% 29.36 in 0.2 mi East 5.8 mph - N/A Fog Fog
4:20 AM 42.8 °F 39.3 °F 42.8 °F 100% 29.36 in 3.7 mi East 5.8 mph - N/A   Partly Cloudy
4:50 AM 42.8 °F 41.1 °F 41.0 °F 93% 29.39 in 3.7 mi East 3.5 mph - N/A Fog Patches of Fog
5:20 AM 44.6 °F 40.7 °F 42.8 °F 93% 29.39 in 3.7 mi East 6.9 mph - N/A Fog Patches of Fog
5:50 AM 44.6 °F 40.2 °F 42.8 °F 93% 29.39 in 4.3 mi East 8.1 mph - N/A   Mostly Cloudy
6:20 AM 44.6 °F 40.7 °F 44.6 °F 100% 29.39 in 4.3 mi East 6.9 mph - N/A   Mostly Cloudy
6:50 AM 44.6 °F 40.7 °F 44.6 °F 100% 29.39 in 5.6 mi East 6.9 mph - N/A   Mostly Cloudy
7:20 AM 44.6 °F 43.1 °F 42.8 °F 93% 29.39 in 5.0 mi Variable 3.5 mph - N/A   Mostly Cloudy
7:50 AM 44.6 °F 39.7 °F 44.6 °F 100% 29.42 in 5.0 mi ESE 9.2 mph - N/A   Mostly Cloudy
8:20 AM 46.4 °F 41.9 °F 44.6 °F 93% 29.42 in 5.0 mi East 9.2 mph - N/A   Mostly Cloudy
8:50 AM 46.4 °F 42.4 °F 44.6 °F 93% 29.42 in 5.6 mi East 8.1 mph - N/A   Mostly Cloudy
9:20 AM 46.4 °F 42.9 °F 44.6 °F 93% 29.42 in 6.2 mi East 6.9 mph - N/A   Scattered Clouds
9:50 AM 46.4 °F 43.5 °F 44.6 °F 93% 29.44 in 6.2 mi East 5.8 mph - N/A   Scattered Clouds
10:20 AM 46.4 °F 42.9 °F 44.6 °F 93% 29.44 in 5.6 mi East 6.9 mph - N/A   Scattered Clouds
10:50 AM 48.2 °F - 46.4 °F 93% 29.44 in 5.6 mi East 8.1 mph - N/A   Mostly Cloudy
11:20 AM 48.2 °F - 46.4 °F 93% 29.47 in 6.2 mi ENE 8.1 mph - N/A   Mostly Cloudy
11:50 AM 48.2 °F - 46.4 °F 93% 29.47 in 6.2 mi East 6.9 mph - N/A   Mostly Cloudy
12:20 PM 50.0 °F - 46.4 °F 87% 29.47 in 6.2 mi ENE 6.9 mph - N/A   Mostly Cloudy
12:50 PM 50.0 °F - 48.2 °F 94% 29.47 in 6.2 mi ENE 6.9 mph - N/A Rain Light Rain Showers
1:20 PM 51.8 °F - 48.2 °F 88% 29.47 in 6.2 mi ENE 6.9 mph - N/A   Mostly Cloudy
1:50 PM 51.8 °F - 48.2 °F 88% 29.47 in 6.2 mi ENE 8.1 mph - N/A   Scattered Clouds
2:20 PM 51.8 °F - 48.2 °F 88% 29.47 in 6.2 mi ENE 8.1 mph - N/A Rain Light Rain Showers
2:50 PM 51.8 °F - 48.2 °F 88% 29.50 in 6.2 mi ENE 6.9 mph - N/A Rain Light Rain Showers
3:20 PM 51.8 °F - 48.2 °F 88% 29.50 in 6.2 mi East 8.1 mph - N/A Rain Light Rain
3:50 PM 50.0 °F - 48.2 °F 94% 29.50 in 6.2 mi ENE 8.1 mph - N/A Rain Light Rain
4:20 PM 50.0 °F - 48.2 °F 94% 29.50 in 6.2 mi ENE 8.1 mph - N/A Rain Light Rain
4:50 PM 51.8 °F - 48.2 °F 88% 29.50 in 6.2 mi ENE 6.9 mph - N/A   Mostly Cloudy
5:20 PM 50.0 °F - 48.2 °F 94% 29.53 in 6.2 mi ENE 6.9 mph - N/A   Partly Cloudy
5:50 PM 50.0 °F - 48.2 °F 94% 29.53 in 6.2 mi East 8.1 mph - N/A Rain Light Rain
6:20 PM 50.0 °F - 48.2 °F 94% 29.56 in 6.2 mi East 6.9 mph - N/A Rain Light Rain
6:50 PM 50.0 °F - 48.2 °F 94% 29.56 in 6.2 mi ENE 6.9 mph - N/A Rain Light Rain
7:20 PM 50.0 °F - 48.2 °F 94% 29.56 in 6.2 mi ENE 6.9 mph - N/A Rain Light Rain
7:50 PM 50.0 °F - 48.2 °F 94% 29.59 in 5.0 mi East 4.6 mph - N/A Rain Rain
8:20 PM 50.0 °F - 48.2 °F 94% 29.59 in 5.0 mi ENE 6.9 mph - N/A Rain Rain
8:50 PM 48.2 °F - 48.2 °F 100% 29.59 in 5.6 mi East 5.8 mph - N/A Rain Rain
9:20 PM 50.0 °F - 48.2 °F 94% 29.59 in 5.0 mi ENE 10.4 mph - N/A Rain Light Rain
9:50 PM 50.0 °F - 48.2 °F 94% 29.62 in 5.0 mi East 9.2 mph - N/A Rain Rain
10:20 PM 48.2 °F - 48.2 °F 100% 29.62 in 3.7 mi ENE 15.0 mph - N/A Rain Rain
10:50 PM 48.2 °F - 48.2 °F 100% 29.62 in 5.0 mi ENE 13.8 mph - N/A Rain Light Rain
11:20 PM 48.2 °F - 46.4 °F 93% 29.65 in 5.0 mi ENE 10.4 mph - N/A Rain Light Rain
11:50 PM 48.2 °F - 46.4 °F 93% 29.65 in 5.6 mi ENE 11.5 mph - N/A   Light Drizzle